SCP
0 0 0 0 0 0 0 0 0 0 0 0 0 0 0 0 0 0 0 0 1 1 1 1 1 1 1 1 1 1 1 1 1 0 0 0 0 1 1 1 1 1 1 1
0 0 0 0 0 0 0 0 0 0 0 0 0 0 0 0 0 0 0 1 1 1 1 1 1 1 1 1 1 1 1 1 1 1 0 0 0 1 1 1 1 1 1 1
0 0 0 0 0 0 0 0 0 0 0 1 1 1 1 1 1 1 1 1 1 1 1 1 1 1 1 1 1 1 1 1 1 1 1 1 1 1 1 1 1 1 1 1
0 0 0 0 0 0 0 0 0 0 1 1 1 1 1 1 1 1 1 1 1 1 1 1 1 1 1 1 1 1 1 1 1 1 1 1 1 1 1 1 1 1 1 1
0 0 0 0 0 0 0 0 0 0 1 1 1 1 1 1 1 1 1 1 1 1 1 1 1 1 1 1 1 1 1 1 1 1 1 1 1 1 1 1 1 1 1 1
0 0 0 0 0 0 0 0 1 1 1 1 1 1 1 1 1 1 1 1 1 1 1 1 1 1 1 1 1 1 1 1 1 1 1 1 1 1 1 1 1 1 1 1
0 0 0 0 0 0 0 1 1 1 1 1 1 1 1 1 1 1 1 1 1 1 1 1 1 1 1 1 1 1 1 1 1 1 1 1 1 1 1 1 1 1 1 1
0 0 0 0 0 0 1 1 1 1 1 1 1 1 1 1 1 1 1 1 1 1 1 1 2 2 1 1 1 1 1 1 1 1 1 1 1 1 1 1 1 1 1 1
0 0 0 0 0 1 1 1 1 0 0 0 0 0 0 1 1 1 1 1 1 1 1 1 2 2 2 2 2 1 1 1 1 1 1 1 1 1 1 1 1 1 1 1
1 1 0 0 0 0 0 0 0 0 0 0 0 0 0 0 0 0 1 1 1 1 1 1 1 1 2 2 2 2 1 1 1 1 1 1 1 1 1 1 1 1 1 1
0 0 0 0 0 0 0 0 0 0 0 0 0 0 0 0 0 0 0 1 1 1 1 1 1 1 1 2 2 2 2 1 1 1 1 1 1 1 1 1 1 0 0 0
0 0 0 0 0 0 0 0 0 0 0 0 0 0 0 0 0 0 0 1 1 1 1 1 1 1 1 2 2 2 2 1 1 1 1 1 1 1 0 0 0 0 0 0
0 0 0 0 0 0 0 0 0 0 0 0 0 0 0 0 0 0 0 1 1 1 1 1 1 1 1 2 2 2 1 1 1 1 1 1 1 1 0 0 0 0 0 0
0 0 0 0 0 0 0 0 0 0 0 0 0 0 0 0 0 0 0 1 1 1 1 1 1 1 1 1 1 1 1 1 1 1 1 1 1 1 1 0 0 0 0 0
0 0 0 0 0 0 0 0 0 0 0 0 0 0 0 0 0 0 0 1 1 1 1 1 1 1 1 1 1 1 1 1 1 1 1 1 1 1 1 1 0 0 0 0
0 0 0 0 0 0 0 0 0 0 0 0 0 0 0 0 0 0 0 0 1 1 1 1 1 1 1 1 1 1 1 1 1 1 1 1 1 0 0 0 0 0 0 0
0 0 0 0 0 0 0 0 0 0 0 0 0 0 0 0 0 0 0 0 0 0 0 0 0 1 1 1 1 1 1 0 0 1 1 1 0 0 0 0 0 0 0 0
0 0 0 0 0 0 0 0 0 0 0 0 0 0 0 0 0 0 0 0 0 0 0 0 0 0 0 0 0 0 0 0 0 0 0 0 0 0 0 0 0 0 0 0
0 0 0 0 0 0 0 0 0 0 0 0 0 0 0 0 0 0 0 0 0 0 0 0 0 0 0 0 0 0 0 0 0 0 0 0 0 0 0 0 0 0 0 0
0 0 0 0 0 0 0 0 0 0 0 0 0 0 0 0 0 0 0 0 0 0 0 0 0 0 0 0 0 0 0 0 0 0 0 0 0 0 0 0 0 0 0 0
0 0 0 0 0 0 0 0 0 0 0 0 0 0 0 0 0 0 0 0 0 0 0 0 0 0 0 0 0 0 0 0 0 0 0 0 0 0 0 0 0 0 0 0
0 0 0 0 0 0 0 0 0 0 0 0 0 0 0 0 0 0 0 0 0 0 0 0 0 0 0 0 0 0 0 0 0 0 0 0 0 0 0 0 0 0 0 0
0 0 0 0 0 0 0 0 0 0 0 0 0 0 0 0 0 0 0 0 0 0 0 0 0 0 0 0 0 0 0 0 0 0 0 0 0 0 0 0 0 0 0 0
0 0 0 0 0 0 0 0 0 0 0 0 0 0 0 0 0 0 0 0 0 0 0 0 0 0 0 0 0 0 0 0 0 0 0 0 0 0 0 0 0 0 0 0
0 0 0 0 0 0 0 0 0 0 0 0 0 0 0 0 0 0 0 0 0 0 0 0 0 0 0 0 0 0 0 0 0 0 0 0 0 0 0 0 0 0 0 0
0 0 0 0 0 0 0 0 0 0 0 0 0 0 0 0 0 0 0 0 0 0 0 0 0 0 0 0 0 0 0 0 0 0 0 0 0 0 0 0 0 0 0 0
0 0 0 0 0 0 0 0 0 0 0 0 0 0 0 0 0 0 0 0 0 0 0 0 0 0 0 0 0 0 0 0 0 0 0 0 0 0 0 0 0 0 0 0
Wind_Speed
6 5 8 10 12 12 12 11 9 8 4 3 2 2 2 4 5 6 7 8 9 9 10 10 10 9 10 10 11 11 12 12 11 11 10 9 9 9 9 9 10 8 7 7
7 9 11 12 13 12 13 11 9 9 5 0 1 1 1 3 4 5 7 9 10 11 11 11 10 10 10 10 10 10 11 11 11 11 10 10 9 9 9 9 8 8 8 8
8 8 9 12 12 11 10 9 7 7 2 1 1 1 1 1 2 3 3 5 8 9 11 10 10 9 9 10 10 10 10 10 11 11 11 10 11 10 9 9 8 8 8 7
6 6 10 6 3 6 6 5 3 1 2 2 0 1 1 2 2 2 2 1 3 6 9 10 11 10 9 10 10 10 11 11 11 11 11 10 9 9 8 7 7 7 7 7
5 7 8 6 4 4 3 2 3 3 3 2 2 1 4 6 5 4 2 1 1 3 6 8 10 11 11 11 12 12 12 11 12 11 10 10 10 9 8 7 7 7 7 7
6 7 7 4 5 3 2 3 6 5 4 1 2 1 3 6 5 4 3 2 1 2 4 7 8 10 11 12 12 12 12 11 10 10 10 10 9 8 7 7 7 7 7 7
8 7 3 2 5 5 3 3 7 7 5 4 4 3 3 6 6 4 3 1 1 1 2 5 7 9 10 11 10 10 10 10 10 9 9 8 8 7 7 7 7 7 7 7
7 7 2 5 3 3 5 5 6 7 7 6 5 4 5 5 5 4 3 2 1 1 1 3 5 8 8 8 8 8 8 9 9 9 9 9 8 7 7 7 7 7 6 6
1 3 6 7 7 5 5 6 7 6 6 5 4 4 5 5 5 5 4 3 2 2 3 3 4 5 7 6 6 7 8 8 8 8 6 6 7 7 6 6 6 6 6 6
4 5 6 8 7 7 7 7 7 6 5 5 5 6 6 5 6 6 5 3 3 2 2 3 4 4 4 5 6 6 7 7 7 7 6 5 4 5 5 5 6 5 5 5
4 5 5 6 6 7 7 7 7 8 8 7 7 7 6 5 6 6 6 5 3 2 2 3 4 4 4 5 5 6 6 6 6 6 6 5 4 2 3 2 3 3 3 3
3 4 4 5 6 8 8 8 8 8 8 8 8 7 7 6 6 6 6 6 5 4 3 3 4 4 4 4 5 6 6 5 5 5 5 5 5 4 6 5 5 6 6 5
4 5 6 6 7 8 7 7 7 8 8 8 7 7 7 6 6 7 7 8 7 7 6 5 5 4 3 4 4 5 5 4 4 4 5 5 5 6 5 5 8 8 7 7
6 6 7 6 6 6 6 7 8 9 9 8 7 7 7 7 8 9 9 8 8 9 9 8 7 6 5 5 5 5 5 4 4 3 4 4 4 5 5 5 4 3 4 5
7 6 4 5 6 6 6 6 8 8 8 8 8 7 8 9 9 9 9 9 10 11 11 10 10 8 6 6 6 6 4 3 3 3 3 4 4 4 4 4 4 4 4 3
5 5 5 6 6 6 6 7 7 7 7 8 7 8 9 9 10 10 11 11 12 13 11 11 11 9 8 7 6 6 6 7 5 4 4 4 4 5 4 4 4 4 3 3
3 4 4 5 5 6 6 6 6 6 7 8 8 9 9 10 10 11 11 12 12 12 11 11 10 9 9 9 7 5 5 6 8 6 5 5 5 5 5 5 5 5 5 5
3 4 5 5 5 6 6 7 7 7 8 8 9 9 10 10 10 10 9 10 11 12 12 11 10 9 9 9 6 5 6 6 6 6 5 5 5 5 5 6 6 6 5 5
6 6 7 7 7 7 7 7 8 8 9 9 9 9 9 9 9 9 9 10 11 11 10 10 11 10 10 11 8 5 6 7 7 6 5 6 6 6 6 6 6 6 6 5
7 8 9 9 9 8 8 8 9 9 8 9 9 9 9 9 9 9 9 10 8 7 7 8 9 8 8 9 8 6 7 7 6 6 5 6 6 6 6 6 6 6 6 5
7 8 9 9 9 9 8 8 8 9 8 9 8 8 8 8 8 7 7 8 7 6 6 7 6 6 6 6 6 6 6 6 6 6 6 6 6 6 6 6 6 5 5 4
7 8 9 9 10 9 8 7 8 9 8 8 8 8 7 7 8 8 8 6 6 6 5 6 7 8 8 6 6 7 7 7 6 6 5 5 5 5 5 5 5 4 5 4
8 9 10 10 9 9 9 8 8 8 9 8 8 8 7 6 5 6 6 5 6 7 6 7 8 10 9 6 6 7 7 6 6 6 5 5 5 5 5 5 5 5 5 4
9 10 10 9 9 10 9 8 8 7 8 7 7 6 5 6 6 6 6 7 7 7 7 6 8 9 6 5 6 6 6 6 6 6 6 6 6 6 6 5 5 5 5 5
9 9 9 9 8 7 7 7 7 7 7 6 8 7 6 6 6 6 6 7 6 6 6 6 5 5 5 6 6 6 6 6 6 6 6 6 6 5 5 5 5 5 5 5
8 8 7 7 6 5 5 5 5 6 6 6 6 6 6 6 6 6 5 7 8 6 5 5 6 6 6 7 7 7 7 6 6 6 7 6 6 6 5 6 7 6 5 6
8 7 6 6 6 6 6 6 6 7 7 7 7 6 6 6 6 6 6 5 5 5 6 6 6 6 6 7 7 8 7 7 7 7 6 6 6 5 6 7 6 6 6 6
Wind_Direction
232 234 237 248 253 248 245 243 247 260 245 223 271 306 120 150 156 168 168 169 172 173 167 168 171 176 177 177 174 173 175 177 175 173 174 176 175 175 175 178 182 176 176 181
232 229 236 238 239 242 245 249 244 247 248 178 263 278 135 154 173 183 186 182 181 177 169 172 176 178 175 174 173 169 173 175 171 173 176 178 177 178 178 181 183 177 183 187
242 244 251 244 236 235 244 252 249 249 223 151 278 76 36 146 196 189 191 186 178 174 172 170 173 174 175 172 170 171 174 174 171 174 177 179 181 179 180 181 184 183 186 190
246 250 251 261 258 233 224 238 263 350 83 119 161 184 69 74 87 90 104 126 163 173 170 172 172 172 173 174 173 175 177 177 173 176 177 176 180 181 181 179 184 186 190 195
243 242 253 270 272 239 211 178 66 82 77 28 282 85 58 52 66 59 64 54 148 183 173 170 173 173 173 178 180 182 184 181 177 177 177 179 183 181 178 180 186 192 197 200
235 241 251 283 323 323 205 170 71 84 86 48 287 267 48 25 33 43 42 29 314 203 174 170 175 170 172 180 183 187 185 183 179 177 179 183 182 179 180 183 190 196 202 202
234 241 226 301 319 304 232 108 51 55 48 30 24 23 24 18 21 24 20 4 313 227 177 172 168 169 176 180 183 184 180 176 175 175 179 180 177 177 179 187 195 203 205 200
224 234 219 26 16 19 70 62 60 55 56 52 44 39 32 26 17 10 11 5 333 137 129 151 157 164 170 175 173 169 169 171 170 171 182 182 174 178 185 191 195 200 206 207
54 90 90 75 79 70 72 67 62 61 57 53 46 44 37 31 25 16 14 14 10 102 115 129 145 152 165 162 156 159 160 160 160 164 171 165 169 177 183 188 200 203 202 209
93 92 84 79 84 79 69 66 59 58 57 58 58 49 38 33 25 19 14 9 11 67 106 121 135 145 151 144 146 153 156 156 155 156 164 159 157 171 183 194 203 203 202 205
111 117 100 69 63 71 69 62 60 63 59 62 63 57 50 44 33 25 18 9 13 48 95 116 125 137 144 144 147 152 153 151 154 159 157 146 142 132 171 163 192 196 196 190
73 62 86 88 66 67 66 61 65 72 66 59 61 59 53 51 42 34 29 23 32 48 76 96 112 117 124 133 143 144 145 145 155 157 152 155 149 125 68 77 81 89 79 88
68 62 77 80 69 66 69 71 71 73 71 65 58 58 56 53 46 42 39 36 41 49 62 67 77 89 109 122 130 133 136 139 151 152 153 159 159 154 139 95 70 72 86 92
64 68 73 74 74 66 69 77 80 75 70 67 66 62 61 60 56 50 44 44 47 53 54 59 61 58 65 96 109 118 123 122 126 130 132 142 145 152 151 149 142 120 93 100
55 68 86 86 86 85 78 79 83 79 75 69 65 62 64 67 63 56 50 50 55 56 52 51 53 48 51 74 89 94 97 100 119 121 117 120 124 126 125 132 136 137 135 114
58 74 91 91 88 90 90 83 82 82 81 79 75 74 75 73 70 63 56 56 58 55 49 49 46 40 47 61 76 87 85 70 73 86 86 87 91 100 105 104 103 101 99 105
81 85 86 93 93 89 84 87 91 89 89 91 90 88 84 79 74 69 64 61 59 56 51 48 45 40 47 50 58 74 79 78 72 73 72 72 75 77 80 83 83 86 81 68
78 91 102 102 101 97 92 89 91 91 93 91 92 88 82 78 76 73 70 69 65 58 51 45 40 43 50 51 47 65 75 76 76 73 68 67 70 75 81 81 83 86 90 84
89 97 103 100 99 97 95 95 94 91 90 90 86 85 84 83 80 75 70 66 63 57 46 42 39 41 44 39 35 59 68 72 74 73 70 71 69 70 71 72 72 74 73 71
87 95 101 101 97 97 97 95 95 94 93 91 87 86 84 82 83 81 75 68 58 53 52 48 44 40 39 31 28 56 64 70 75 76 74 72 72 71 72 73 71 70 69 68
96 99 101 101 98 96 97 99 99 98 97 95 91 88 86 82 77 75 78 75 58 40 55 63 52 43 38 27 43 58 58 57 62 67 70 71 71 71 71 70 69 68 65 63
99 100 100 99 97 94 91 93 98 101 101 101 100 96 91 89 88 79 69 69 65 43 54 61 50 33 17 27 62 62 60 57 55 58 61 63 66 68 67 67 64 62 59 52
94 100 100 98 99 99 95 94 95 94 94 91 87 84 81 73 75 79 74 61 61 53 59 54 33 26 18 49 62 60 59 58 57 56 55 56 58 59 56 55 54 52 50 43
86 90 92 94 96 95 93 92 93 95 98 96 92 88 86 85 79 77 83 78 62 63 67 56 36 22 23 57 61 60 56 54 53 51 50 51 51 50 49 46 47 45 39 33
82 84 85 87 89 89 91 91 93 93 94 89 87 83 79 76 78 77 77 81 82 75 76 67 48 24 37 51 54 58 57 51 49 49 52 50 48 47 44 40 39 34 31 31
81 81 79 77 77 78 80 80 83 81 80 78 72 67 66 70 77 78 78 78 70 62 62 62 57 50 47 48 46 46 48 49 47 50 51 48 43 39 34 31 31 30 29 29
86 84 80 76 70 66 69 70 70 70 70 69 68 65 63 61 60 63 66 68 66 61 58 57 54 48 45 46 49 47 44 43 41 38 39 39 37 36 32 27 28 29 28 31